LEMUR 2 REMY-COLTON

导读 | 豆包AI

**LEMUR 2 REMY-COLTON**是美国Spire Global公司于2018年12月27日发射的LEMUR-2系列立方星,归属商业遥感卫星星座。它依托标准化设计实现低成本部署,搭载GNSS掩星载荷,可获取全球船舶自动识别信号、开展大气气象观测与电离层参数测量,为气候研究、海事监测及天气预报提供关键数据支撑,是商业航天服务科研与民生领域的典型实践。

Basic Information
目录编号:
43884
目录名称:
LEMUR 2 REMY-COLTON
国际标识:
2018-111J
轨道中心:
EARTH
卫星名称:
LEMUR 2 REMY-COLTON
卫星全名:
--
卫星状态:
已陨落 最后检测时间 2025-04-15
发射日期:
2018-12-27 UTC
国别 :
美国 (US)
星等 :
--
Orbit Information
数据来源 国际轨道数据
星历时间: 2025-04-10T23:06:30+0800
轨道信息已过期338天
半长轴: 6526.439km
偏心率: 0.0005642
轨道倾角: 97.572°
近地点辐角 160.857°
升交点赤经 32.512°
平近点角 199.294°
近地点: 144.621km
远地点: 151.987km
周期: 87.453分钟
每日圈数: 16.466011
Detailed Information
使用方式:
暂无